Weather History for Mammoth, CA

Change the Weather History Date:

Sunday, May 26, 2013

  Actual Average Record
Temperature  
Mean Temperature 52 °F -  
Max Temperature 64 °F 66 °F 80 °F (2003)
Min Temperature 39 °F 54 °F 30 °F (2012)
Degree Days  
Heating Degree Days 14    
Growing Degree Days 2 (Base 50)    
Moisture  
Dew Point 23 °F    
Average Humidity 35    
Maximum Humidity 61    
Minimum Humidity 16    
Precipitation  
Precipitation 0.00 in - - ()
Sea Level Pressure  
Sea Level Pressure 30.11 in    
Wind  
Wind Speed 12 mph (WNW)    
Max Wind Speed 24 mph    
Max Gust Speed 34 mph    
Visibility 10 miles    
Events      
Averages and records for this station are not official NWS values.
T = Trace of Precipitation, MM = Missing Value Source: NWS Daily Summary

Daily Weather History Graph

Daily Weather History Graph

Search for Another Location

Airport:

Trip Planner

Search our weather history database for the weather conditions in past years. The results will help you decide how hot, cold, wet, or windy it might be!

Date:

Astronomy

May. 26, 2013 Rise Set
Actual Time 5:38 AM PDT 8:07 PM PDT
Civil Twilight 5:07 AM PDT 8:37 PM PDT
Nautical Twilight 4:30 AM PDT 9:15 PM PDT
Astronomical Twilight 3:49 AM PDT 9:56 PM PDT
Moon 9:59 PM PDT (5/26) 7:12 AM PDT (5/26)
Length of Visible Light 15h 29m
Length of Day
14h 29m
Waning Gibbous, 96% of the Moon is Illuminated
May 26
Waning Gibbous
May 31
Last Quarter
Jun 8
New
Jun 16
First Quarter
Jun 23
Full

Hourly Weather History & Observations

Time (PDT) Temp. Windchill Dew Point Humidity Pressure Visibility Wind Dir Wind Speed Gust Speed Precip Events Conditions
12:15 AM 46.4 °F 44.3 °F 21.2 °F 37% 30.07 in 10.0 mi NNE 4.6 mph - N/A   Scattered Clouds
12:35 AM 46.4 °F - 21.2 °F 37% 30.07 in 10.0 mi Calm Calm - N/A   Scattered Clouds
12:55 AM 46.4 °F 39.2 °F 23.0 °F 40% 30.07 in 10.0 mi West 18.4 mph 27.6 mph N/A   Clear
1:15 AM 46.4 °F 41.5 °F 23.0 °F 40% 30.07 in 10.0 mi West 10.4 mph 21.9 mph N/A   Clear
1:35 AM 46.4 °F 41.5 °F 23.0 °F 40% 30.08 in 10.0 mi WSW 10.4 mph - N/A   Clear
1:55 AM 46.4 °F 39.2 °F 23.0 °F 40% 30.08 in 10.0 mi West 18.4 mph 29.9 mph N/A   Clear
2:15 AM 44.6 °F 37.8 °F 23.0 °F 43% 30.08 in 10.0 mi WSW 15.0 mph 29.9 mph N/A   Clear
2:35 AM 44.6 °F 38.1 °F 23.0 °F 43% 30.09 in 10.0 mi WSW 13.8 mph 26.5 mph N/A   Clear
2:55 AM 44.6 °F 37.4 °F 24.8 °F 46% 30.09 in 10.0 mi West 16.1 mph 26.5 mph N/A   Clear
3:15 AM 44.6 °F 36.9 °F 24.8 °F 46% 30.09 in 10.0 mi West 18.4 mph 25.3 mph N/A   Clear
3:35 AM 42.8 °F 36.2 °F 24.8 °F 49% 30.09 in 10.0 mi West 12.7 mph 21.9 mph N/A   Clear
3:55 AM 42.8 °F 35.4 °F 24.8 °F 49% 30.09 in 10.0 mi WNW 15.0 mph 21.9 mph N/A   Clear
4:15 AM 42.8 °F 38.6 °F 23.0 °F 46% 30.09 in 10.0 mi NW 6.9 mph 11.5 mph N/A   Clear
4:35 AM 41.0 °F 37.1 °F 23.0 °F 49% 30.09 in 10.0 mi WNW 5.8 mph - N/A   Clear
4:55 AM 39.2 °F 34.2 °F 23.0 °F 52% 30.09 in 10.0 mi WNW 6.9 mph - N/A   Clear
5:15 AM 39.2 °F 33.6 °F 21.2 °F 49% 30.09 in 10.0 mi West 8.1 mph - N/A   Clear
5:35 AM 41.0 °F 33.9 °F 21.2 °F 45% 30.09 in 10.0 mi WNW 12.7 mph - N/A   Clear
5:55 AM 41.0 °F 34.7 °F 21.2 °F 45% 30.10 in 10.0 mi West 10.4 mph - N/A   Clear
6:15 AM 41.0 °F 35.2 °F 21.2 °F 45% 30.10 in 10.0 mi West 9.2 mph - N/A   Clear
6:35 AM 44.6 °F 40.2 °F 21.2 °F 39% 30.10 in 10.0 mi West 8.1 mph - N/A   Clear
6:55 AM 46.4 °F 42.4 °F 21.2 °F 37% 30.10 in 10.0 mi West 8.1 mph - N/A   Clear
7:15 AM 48.2 °F - 21.2 °F 34% 30.10 in 10.0 mi WNW 8.1 mph - N/A   Clear
7:35 AM 51.8 °F - 19.4 °F 28% 30.10 in 10.0 mi NW 9.2 mph - N/A   Clear
7:55 AM 51.8 °F - 19.4 °F 28% 30.10 in 10.0 mi NW 12.7 mph 16.1 mph N/A   Clear
8:15 AM 53.6 °F - 19.4 °F 26% 30.10 in 10.0 mi NW 12.7 mph 19.6 mph N/A   Clear
8:35 AM 55.4 °F - 19.4 °F 25% 30.10 in 10.0 mi NW 8.1 mph 16.1 mph N/A   Clear
8:55 AM 57.2 °F - 17.6 °F 21% 30.10 in 10.0 mi NW 12.7 mph 19.6 mph N/A   Clear
9:15 AM 57.2 °F - 15.8 °F 20% 30.10 in 10.0 mi West 17.3 mph 21.9 mph N/A   Clear
9:35 AM 59.0 °F - 15.8 °F 19% 30.10 in 10.0 mi West 8.1 mph 25.3 mph N/A   Clear
9:55 AM 59.0 °F - 15.8 °F 19% 30.10 in 10.0 mi West 20.7 mph 32.2 mph N/A   Clear
10:15 AM 60.8 °F - 17.6 °F 19% 30.10 in 10.0 mi WNW 19.6 mph 25.3 mph N/A   Clear
10:35 AM 60.8 °F - 15.8 °F 17% 30.10 in 10.0 mi West 20.7 mph 28.8 mph N/A   Clear
10:55 AM 60.8 °F - 15.8 °F 17% 30.09 in 10.0 mi WSW 15.0 mph 21.9 mph N/A   Clear
11:15 AM 62.6 °F - 15.8 °F 16% 30.10 in 10.0 mi NW 12.7 mph 28.8 mph N/A   Clear
11:35 AM 62.6 °F - 15.8 °F 16% 30.10 in 10.0 mi West 10.4 mph 27.6 mph N/A   Clear
11:55 AM 62.6 °F - 17.6 °F 18% 30.10 in 10.0 mi WNW 20.7 mph 26.5 mph N/A   Clear
12:35 PM 62.6 °F - 15.8 °F 16% 30.10 in 10.0 mi West 13.8 mph 31.1 mph N/A   Clear
12:55 PM 62.6 °F - 15.8 °F 16% 30.10 in 10.0 mi West 19.6 mph 32.2 mph N/A   Clear
1:15 PM 62.6 °F - 17.6 °F 18% 30.10 in 10.0 mi West 18.4 mph 25.3 mph N/A   Scattered Clouds
1:35 PM 64.4 °F - 17.6 °F 16% 30.10 in 10.0 mi WSW 8.1 mph 28.8 mph N/A   Clear
1:55 PM 64.4 °F - 19.4 °F 18% 30.11 in 10.0 mi West 21.9 mph 32.2 mph N/A   Clear
2:15 PM 64.4 °F - 21.2 °F 19% 30.11 in 10.0 mi NW 20.7 mph 29.9 mph N/A   Clear
2:35 PM 64.4 °F - 23.0 °F 21% 30.11 in 10.0 mi WNW 23.0 mph 32.2 mph N/A   Scattered Clouds
2:55 PM 62.6 °F - 26.6 °F 26% 30.11 in 10.0 mi WNW 24.2 mph 32.2 mph N/A   Clear
3:15 PM 62.6 °F - 26.6 °F 26% 30.11 in 10.0 mi NW 20.7 mph 28.8 mph N/A   Clear
3:35 PM 62.6 °F - 26.6 °F 26% 30.11 in 10.0 mi WNW 20.7 mph 31.1 mph N/A   Clear
3:55 PM 64.4 °F - 24.8 °F 22% 30.11 in 10.0 mi WNW 19.6 mph 27.6 mph N/A   Clear
4:15 PM 62.6 °F - 24.8 °F 24% 30.10 in 10.0 mi WNW 24.2 mph 29.9 mph N/A   Clear
4:35 PM 64.4 °F - 24.8 °F 22% 30.10 in 10.0 mi WNW 20.7 mph 34.5 mph N/A   Clear
4:55 PM 62.6 °F - 23.0 °F 22% 30.11 in 10.0 mi WNW 21.9 mph 32.2 mph N/A   Clear
5:15 PM 62.6 °F - 24.8 °F 24% 30.11 in 10.0 mi WNW 23.0 mph 32.2 mph N/A   Clear
5:35 PM 60.8 °F - 24.8 °F 25% 30.11 in 10.0 mi WNW 24.2 mph 31.1 mph N/A   Clear
5:55 PM 60.8 °F - 26.6 °F 27% 30.11 in 10.0 mi WNW 19.6 mph 31.1 mph N/A   Clear
6:15 PM 60.8 °F - 26.6 °F 27% 30.11 in 10.0 mi WNW 19.6 mph 26.5 mph N/A   Clear
6:35 PM 59.0 °F - 28.4 °F 31% 30.11 in 10.0 mi WNW 17.3 mph 26.5 mph N/A   Clear
6:55 PM 57.2 °F - 30.2 °F 36% 30.11 in 10.0 mi WNW 15.0 mph 21.9 mph N/A   Clear
7:15 PM 55.4 °F - 32.0 °F 41% 30.12 in 10.0 mi WNW 18.4 mph 24.2 mph N/A   Clear
7:35 PM 53.6 °F - 32.0 °F 44% 30.12 in 10.0 mi NW 11.5 mph 20.7 mph N/A   Clear
7:55 PM 51.8 °F - 32.0 °F 47% 30.13 in 10.0 mi WNW 16.1 mph 23.0 mph N/A   Clear
8:15 PM 50.0 °F - 32.0 °F 50% 30.12 in 10.0 mi WNW 11.5 mph 21.9 mph N/A   Clear
8:35 PM 48.2 °F - 32.0 °F 54% 30.12 in 10.0 mi NW 10.4 mph - N/A   Clear
8:55 PM 48.2 °F - 32.0 °F 54% 30.14 in 10.0 mi WNW 4.6 mph - N/A   Clear
9:15 PM 48.2 °F - 32.0 °F 54% 30.15 in 10.0 mi Calm Calm - N/A   Clear
9:35 PM 44.6 °F 41.4 °F 30.2 °F 57% 30.15 in 10.0 mi West 5.8 mph - N/A   Clear
9:55 PM 46.4 °F 43.5 °F 30.2 °F 53% 30.15 in 10.0 mi West 5.8 mph - N/A   Clear
10:15 PM 42.8 °F 39.3 °F 30.2 °F 61% 30.15 in 10.0 mi WNW 5.8 mph - N/A   Clear
10:35 PM 42.8 °F - 28.4 °F 57% 30.16 in 10.0 mi Calm Calm - N/A   Clear
10:55 PM 44.6 °F 40.7 °F 30.2 °F 57% 30.17 in 10.0 mi North 6.9 mph - N/A   Clear
11:15 PM 44.6 °F 40.2 °F 30.2 °F 57% 30.17 in 10.0 mi WNW 8.1 mph - N/A   Clear
11:35 PM 44.6 °F - 28.4 °F 53% 30.16 in 10.0 mi Calm Calm - N/A   Clear
11:55 PM 42.8 °F 37.5 °F 26.6 °F 53% 30.16 in 10.0 mi NW 9.2 mph - N/A   Clear